Location: Im Fang
(46.6019°N, 7.2397°E)
Time: 09:01:33
(UTC+00:00)

Helios 1A Rocket - Pass Details

Date: 08 December 2019
Orbit: 564 x 587 km, 98.3° (Epoch: 26 January)

Event Time Altitude Azimuth Distance (km) Brightness Sun altitude
Rises 05:02:30 0° 17° (NNE) 2,780 6.5 -19.6°
Reaches altitude 10° 05:04:41 10° 21° (NNE) 1,875 5.6 -19.3°
Maximum altitude 05:08:41 60° 102° (ESE) 649 3.4 -18.6°
Drops below altitude 10° 05:12:39 10° 183° (S) 1,854 5.6 -17.9°
Sets 05:14:48 0° 187° (S) 2,745 6.5 -17.6°
